www.pogodaiklimat.ru
Время
и дата
00:53 24.05
01:53 24.05
02:53 24.05
03:53 24.05
04:53 24.05
05:53 24.05
06:53 24.05
07:53 24.05
08:53 24.05
09:53 24.05
10:53 24.05
11:53 24.05
12:53 24.05
13:53 24.05
14:53 24.05
15:53 24.05
16:53 24.05
17:53 24.05
18:53 24.05
19:53 24.05
20:53 24.05
21:53 24.05
22:53 24.05
23:53 24.05
00:53 25.05
01:53 25.05
02:53 25.05
03:53 25.05
04:53 25.05
05:53 25.05
06:53 25.05
07:53 25.05
08:53 25.05
09:53 25.05
10:53 25.05
11:53 25.05
12:53 25.05
13:53 25.05
14:53 25.05
15:53 25.05
16:53 25.05
17:53 25.05
18:53 25.05
19:53 25.05
20:53 25.05
21:53 25.05
22:53 25.05
23:53 25.05
Ветер
(напр.,м/с)
Видим. Явления Облачность Т
(С)
Тd
(С)
f
(%)
Тe
(С)
Тes
(С)
Комфортность P
(гПа)
Po
(гПа)
Тmin
(С)
Tmax
(С)
R
(мм)
R24
(мм)
S
(см)
ЮВ 4 16 км ясно +8.3 +5.0 80 +5 +5 1012.2 958.5
ЮВ 3 16 км ясно +7.2 +4.4 82 +4 +4 1011.8 958.1
ЮВ 3 16 км ясно +9.4 +4.4 71 +7 +7 1011.4 957.8
В 3 16 км ясно +6.7 +3.9 82 +4 +4 1011.3 957.5 +6.7 +12.2
ЮВ 2 16 км ясно +7.2 +4.4 82 +5 +5 1011.0 957.5
В 3 16 км ясно +9.4 +5.6 77 +7 +7 1010.9 957.5
ЮВ 2 16 км ясно +11.1 +5.6 69 +10 +12 1010.8 957.5
нст 2 16 км ясно +14.4 +6.1 57 +14 +18 1010.4 956.9
З 5
{9}
16 км ясно +17.2 +5.0 44 +17 +21 1009.8 956.5
З 5
{8}
16 км 2/2 1950 м +18.3 +3.9 38 +18 +23 1009.2 955.9 +6.1 +18.3
З 5
{9}
16 км 2/2 1950 м +18.9 +2.8 34 +19 +25 1008.6 955.3
СЗ 7
{10}
16 км 2/2 1950 м +19.4 +5.0 39 +19 +23 1007.9 954.6
З 9 16 км 2/0 3600 m
[Ac]
+18.9 +2.2 33 +18 +20 1007.8 954.3
З 8
{10}
16 км 2/0 2250 m
[Ac]
+21.1 +1.7 28 +21 +24 комфорт 1007.0 953.7
З 7 16 км 8/2 1950 m
[Ac]
+20.0 +1.1 28 +20 +21 1006.8 953.7
З 8
{11}
16 км 10/2 1950 m
[Ac]
+20.6 +2.2 30 +20 +21 1006.5 953.3 +17.8 +21.7
З 7
{12}
16 км 8/0 2700 m
[Ac]
+19.4 +3.9 36 +19 +20 1006.4 953.0
З 9
{13}
16 км ясно +17.8 +4.4 41 +17 +17 1006.0 952.7
З 6
{11}
16 км ясно +15.6 +5.0 49 +14 +15 1006.2 953.0
З 11
{13}
16 км 10/0 3000 m
[Ac]
+14.4 +5.6 55 +12 +12 1006.3 953.0
ЮЗ 5
{11}
16 км 10/0 2100 m
[Ac]
+14.4 +6.1 57 +13 +13 1006.9 953.7
З 8
{12}
16 км 10/0 2250 m
[Ac]
+13.9 +6.1 59 +12 +12 1006.8 953.7 +13.9 +20.6
З 9
{12}
16 км 10/0 2100 m
[Ac]
+13.3 +5.6 60 +11 +11 1007.1 954.0
З 6 16 км 10/10 1800 м +13.3 +5.6 60 +11 +11 1007.3 954.3
ЮЗ 6 16 км 10/10 1800 м +13.3 +5.6 60 +11 +11 1007.8 954.6
З 6 16 км 10/10 1290 м +12.8 +5.6 62 +11 +11 1007.9 954.9
ЮЗ 7 16 км 10/10 1140 м +12.8 +6.1 64 +10 +10 1008.1 954.9
З 6 16 км 10/10 1230 м +12.2 +5.6 64 +10 +10 1008.1 954.9 +12.2 +13.9
З 9
{11}
16 км 10/10 1440 м +11.7 +5.0 63 +8 +8 1008.7 955.6
З 10 16 км 10/10 1500 м +10.6 +2.8 58 +7 +7 1009.3 955.9
З 9
{13}
16 км 8/8 1410 м +11.1 +2.2 54 +8 +8 1009.9 956.2
З 9
{15}
16 км 8/8 1650 м +11.1 +1.7 52 +8 +8 1010.4 956.9
З 9 16 км 8/8 1500 м +13.3 +1.1 43 +11 +11 1010.5 956.9
ЮЗ 10
{15}
16 км 10/10 1500 м +15.0 +0.6 37 +13 +13 1010.5 957.2 +10.6 +16.1
З 11
{15}
16 км 5/5 1650 m
[Ac]
+16.1 +1.1 36 +14 +14 1010.5 957.2
З 11
{14}
16 км 8/8 1800 м +16.1 +1.1 36 +14 +14 1010.7 957.2
З 11
{16}
16 км 5/2 1650 m
[Ac]
+17.2 +1.1 34 +16 +16 1011.0 957.5
З 13
{18}
16 км 5/5 1650 м +16.1 +1.1 36 +14 +14 1011.5 958.1
З 13
{21}
16 км ясно +17.8 +0.6 31 +16 +16 1011.4 957.8
З 13
{17}
16 км 5/0 2250 m
[Ac]
+17.2 +0.6 33 +15 +15 1011.6 958.1 +14.4 +17.8
З 12
{19}
16 км ясно +16.1 +1.7 38 +14 +14 1012.1 958.5
З 12
{16}
16 км 2/0 3300 m
[Ac]
+15.0 +2.2 42 +13 +13 1012.5 958.8
З 11
{14}
16 км 5/0 3300 m
[Ac]
+12.8 +2.8 51 +10 +10 1013.0 959.1
З 10
{15}
16 км 8/0 3300 m
[Ac]
+11.7 +2.8 54 +8 +8 1013.7 959.7
ЮЗ 6
{12}
16 км ясно +11.1 +2.8 57 +8 +8 1014.6 960.7
ЮЗ 6 16 км ясно +10.6 +3.3 61 +8 +8 1015.5 961.7 +10.0 +17.2
16 км ясно +10.0 +2.8 61 +10 +10 1015.5 961.7
ЮЗ 5
{11}
16 км ясно +9.4 +2.8 63 +6 +6 1015.9 962.0
Местоположение метеостанции Eastern Oregon Regional Airport: широта 45.6906 долгота -118.8528 высота над уровнем моря 462 м.
В архиве по умолчанию представлена погода в Пендлтоне за последние 1-2 суток. Обновление информации о фактической погоде в базе происходит ежечасно! Архивные данные за месяц целиком и за предыдущие месяцы Вы можете получить, выбрав интересующий диапазон дат из раскрывающегося списка и нажав кнопку "Ввод!".
Внимание! Архив погоды МЕТАР в базе сайта по станциям, не включенным в климатический монитор, хранится не более 60 дней. Нет смысла пытаться выбрать более раннюю дату.
*Определитесь, кто Вы:
Внимание! Время в таблицах - местное (без учета летнего времени). Для получения всемирного времени необходимо вычесть поправку, которая равна -8 ч.
Смотрите также архив погоды в соседних городах и на ближайших метеорологических станциях:
Партнеры нашего сайта:      
Пояснения к столбцам:
  • Ветер - указаны скорость ветра в м/с - средняя за 10 мин, порывы в срок и между сроками (в фигурных скобках) и направление, откуда дует ветер: С - северный,
  • СВ - северо-восточный, В - восточный, ЮВ - юго-восточный, Ю - южный, ЮЗ - юго-западный, З - западный, СЗ - северо-западный.
  • Видимость - горизонтальная дальность видимости в метрах или километрах. При видимости от 1 до 10 км при отсутствии осадков обычно наблюдается дымка, при ухудшении видимости до 1 км и менее - туман. В сухую погоду видимость может ухудшаться дымом, пылью или мглою.
  • Явления - указаны атмосферные явления, наблюдавшиеся в срок или в последний час перед сроком; фигурными скобками обозначены явления, наблюдавшиеся между сроками (за 1-3 часа до срока); квадратными скобками обозначены град или гололедные отложения с указанием их диаметра в мм.
  • Облачность - указаны через наклонную черту общая и нижняя облачность в баллах и высота нижней границы облаков в метрах; квадратными скобками обозначены формы облаков: Ci - перистые, Cs - перисто-слоистые, Cc - перисто-кучевые, Ac - высококучевые, As - высокослоистые, Sc - слоисто-кучевые, Ns - слоисто-дождевые, Cu - кучевые, Cb - кучево-дождевые. Подробнее классификацию облаков см. в Атласе облаков (PDF).
  • T - Температура воздуха - температура, измеренная на высоте 2 м над землей.
  • Td - Температура точки росы - температура, при понижении до которой содержащийся в воздухе водяной пар достигнет насыщения.
  • f - Относительная влажность воздуха - влажноcть воздуха, измеренная на высоте 2 м над землей.
  • Te - Эффективная температура - температура, которую ощущает одетый по сезону человек в тени. Характеристика душности погоды. При расчете учитывается влияние влажности воздуха и скорости ветра на теплоощущения человека.
  • Tes - Эффективная температура на солнце - температура, которую ощущает человек, с поправкой на солнечный нагрев. Характеристика знойности погоды. Зависит от высоты солнца над горизонтом, облачности и скорости ветра. Ночью, в пасмурную погоду, а также при ветре 12 м/с и более поправка равна нулю.
  • P - Атмосферное давление - приведенное к уровню моря атмосферное давление.
  • Po - Атмосферное давление - измеренное на уровне метеостанции атмосферное давление.
  • Tmin - Минимальная температура - минимум температуры воздуха на высоте 2 м над землей.
  • Tmax - Максимальная температура - максимум температуры воздуха на высоте 2 м над землей.
  • R - Количество осадков - Количество выпавших осадков за период времени, мм. При наведении курсора мыши на число - период времени, за который выпало указанное количество осадков.
  • R24 - Количество осадков - Количество выпавших осадков за 24 часа, мм.
  • S - Снежный покров - Высота снежного покрова, см. При наведении курсора мыши на число - состояние снежного покрова и степень покрытия местности в баллах.